Regional Weather Roundup
Issued by NWS

Home | Current Version | Previous Version | Text Only | Print | Product List | Glossary Off
Versions: 1 2 3 4 5 6 7 8 9 10 11 12 13 14 15 16 17 18 19 20 21 22 23 24 25 26 27 28 29 30 31 32 33 34 35 36 37 38 39 40 41 42 43 44 45 46 47 48 49 50

898
ASUS45 KBOI 191910
RWRID

IDAHO REGIONAL WEATHER ROUNDUP
NATIONAL WEATHER SERVICE BOISE ID
100 PM MDT TUE SEP 19 2017

NOTE: "FAIR" INDICATES FEW OR NO CLOUDS BELOW 12000 FEET
WITH NO SIGNIFICANT WEATHER AND/OR OBSTRUCTIONS TO VISIBILITY

IDZ012-014-192000-
SOUTHWEST IDAHO


CITY           SKY/WX    TMP DP  RH WIND       PRES   REMARKS
BOISE          CLOUDY    53  40  61 VRB6      29.90F
CALDWELL       LGT RAIN  56  39  53 SW5       29.90R
MOUNTAIN HOME  PTSUNNY   56  40  56 W12       29.92S
$$

IDZ016-017-192000-
SOUTHCENTRAL IDAHO


CITY           SKY/WX    TMP DP  RH WIND       PRES   REMARKS
BURLEY         MOSUNNY   53  38  56 W17G24    29.91F
JEROME         MOSUNNY   52  42  69 SW15      29.92F
TWIN FALLS     PTSUNNY   52  38  58 W10       29.91F
$$

IDZ019>023-192000-
SOUTHEAST IDAHO


CITY           SKY/WX    TMP DP  RH WIND       PRES   REMARKS
IDAHO FALLS    CLOUDY    51  32  48 SW28G39   29.83F
POCATELLO      MOSUNNY   53  35  50 W25G35    29.90S
REXBURG        PTSUNNY   50  33  52 SW18G31   29.81F
$$

IDZ006-010-011-018-031-032-192000-
CENTRAL IDAHO MOUNTAINS


CITY           SKY/WX    TMP DP  RH WIND       PRES   REMARKS
MCCALL         CLOUDY    41  36  82 S15       29.83R
HAILEY         PTSUNNY   48  34  57 S9G15     29.87R
STANLEY          N/A     37  32  82 NE6       29.86R WCI  32
SALMON         PTSUNNY   54  37  52 S14       29.77F
CHALLIS        PTSUNNY   49  32  52 VRB3      29.78F
$$

IDZ002-004-006-007-026-192000-
NORTHERN IDAHO


CITY           SKY/WX    TMP DP  RH WIND       PRES   REMARKS
LEWISTON       CLOUDY    54  46  74 NE7       29.77F
LOWELL           N/A     49  45  86 CALM      29.82F
COEUR D`ALENE  LGT RAIN  47  44  90 SW9       29.73S
MULLAN PASS    SNOW      32  31  96 SW6       29.70F VSB 1/4 WCI  26
$$




USA.gov is the U.S. government's official web portal to all federal, state and local government web resources and services.